Tracking 30402 objects as of 12-May-2025
HD Live streaming from Space Station
objects crossing your sky now

THOR ABLESTAR DEB

Track THOR ABLESTAR DEB now!
10-day predictions


NORAD ID: 461
Int'l Code: 1961-015EX
Perigee: 581.3 km
Apogee: 622.7 km
Inclination: 67.5 °
Period: 96.6 minutes
Semi major axis: 6973 km
RCS: 0.1159 m2 (medium)
Launch date: June 29, 1961
Source: United States (US)
Launch site: AIR FORCE EASTERN TEST RANGE (AFETR)

Note: This is SATELLITE DEBRIS
Your satellite tracking list
Your tracking list is empty




NASA's NSSDC Master Catalog

Two Line Element Set (TLE):
1 00461U 61015EX  25131.74759270  .00015626  00000-0  15726-2 0  9990
2 00461  67.4965 143.2621 0029716 344.1006  15.9193 14.90982224325641
Source of the keplerian elements: AFSPC